Location: Boissi�res
(45.2500°N, 2.3667°E)
Time: 02:48:04
(UTC+00:00)

GP-B - Pass Details

Date: 03 March 2021
Orbit: 631 x 635 km, 89.8° (Epoch: 20 April)

Event Time Altitude Azimuth Distance (km) Brightness Sun altitude
Rises 19:21:05 0° 184° (S) 2,915 6.5 -18.4°
Reaches altitude 10° 19:23:18 10° 187° (S) 2,013 5.6 -18.8°
Maximum altitude 19:27:42 66° 270° (W) 694 3.5 -19.6°
Drops below altitude 10° 19:32:09 10° 353° (N) 2,031 5.9 -20.3°
Sets 19:34:24 0° 356° (N) 2,945 6.7 -20.7°
